Voltar ao catálogo

ATLAS 41E DEB

AtivoLEO
NORAD 15614·DEBRIS·🇺🇸 United States

Lançado Mar 13, 1985 de Vandenberg Space Force Base

Loading…

Próximas Passagens (próximas 24 horas)

TLE

AtualizadoSource: Space-Track

Época: Sep 14, 2026, 03:48 UTC

1 15614U 85021D   26257.15843834  .00001024  00000-0  16331-3 0  9995
2 15614 108.2210 338.2140 0010123 124.1643 236.0479 14.78851471209831

Acompanhe ATLAS 41E DEB em tempo real com AllMySat

Download on the App Store